{"data":{"norad_id":58422,"intl_designator":"2023-180W","name":"STARLINK-30912","alt_names":[],"object_type":"PAYLOAD","status":"ACTIVE","operator":null,"country":"US","launch_date":"2023-11-22","launch_site_code":"AFETR","launch_vehicle":null,"mission":null,"orbit_class":"UNKNOWN","rcs_meters":null,"size_class":null,"mass_kg":null,"dimensions":null,"purposes":["comms"],"wikipedia_slug":null,"has_3d_model":false,"image_url":null,"decayed_at":null,"tle_current":{"epoch":"2026-05-24T20:06:57.028320Z","epoch_age_seconds":93039,"freshness":"FRESH","line1":"1 58422U 23180W   26144.83816005 -.00000027  00000+0  85350-5 0  9998","line2":"2 58422  42.9996 200.2508 0001833 276.2316  83.8327 15.27578697140947","mean_motion":15.27578697,"eccentricity":0.0001833,"inclination_deg":42.9996,"raan_deg":200.2508,"arg_perigee_deg":276.2316,"mean_anomaly_deg":83.8327,"bstar":8.535e-6,"rev_number":14094,"period_min":94.266829121668,"perigee_km":481.7953415666,"apogee_km":484.31065381975,"semimajor_km":6861.1899976932,"source":"CELESTRAK","updated_at":"2026-05-25T13:38:18.620984Z"}}}